Location: Unnamed
(45.1820°N, 67.3015°W)
Time: 08:22:20
(UTC-04:00)

ISS - Pass Details

Date: 18 February 2026
Orbit: 416 x 427 km, 51.6° (Epoch: 6 March)

Event Time Altitude Azimuth Distance (km) Brightness Sun altitude
Exits shadow 04:33:32 13° 76° (ENE) 1,312 -0.4 -30.8°
Drops below altitude 10° 04:34:01 10° 73° (ENE) 1,495 -0.1 -30.7°
Sets 04:36:12 0° 65° (ENE) 2,360 1.2 -30.4°
